Torna al catalogo

FENGYUN 1C DEB

AttivoPO
NORAD 33640·DEBRIS·🇨🇳 China

Lanciato May 10, 1999 da Taiyuan Satellite Launch Center

Loading…

Prossimi Passaggi (prossime 24 ore)

TLE

AggiornatoSource: Space-Track

Epoca: Sep 12, 2026, 08:29 UTC

1 33640U 99025DDZ 26255.35400125  .00001231  00000-0  33590-3 0  9991
2 33640  98.8695 215.3923 0090457  60.9863 300.0355 14.46888148962987

Traccia FENGYUN 1C DEB in tempo reale con AllMySat

Download on the App Store